Datetime, Temperature (degree C), Humidity (%), Rainfall (6mn), Solar radiation (W.m^-2), Wind Direction (degree), Wind speed (m.s^-1), Gust Speed (m.s^-1), Gust Direction (degree), Air-pressure at station level (hPa), Air-pressure at sea levele (hPa), Longitude, Latitude
2022-02-22T00:00:00, 11.1, 35.0, 0.0, 0.0, 300.0, 7.2, 9999.999, 9999.999, 1012.4, 1021.0, 6.011558, 43.135978
2022-02-22T00:06:00, 10.9, 36.0, 0.0, 0.0, 300.0, 5.4, 9999.999, 9999.999, 1012.5, 1021.2, 6.011558, 43.135978
2022-02-22T00:12:00, 10.9, 36.0, 0.0, 0.0, 290.0, 5.6, 9999.999, 9999.999, 1012.4, 1021.1, 6.011558, 43.135978
2022-02-22T00:18:00, 10.9, 36.0, 0.0, 0.0, 290.0, 5.5, 9999.999, 9999.999, 1012.7, 1021.4, 6.011558, 43.135978
2022-02-22T00:24:00, 10.9, 36.0, 0.0, 0.0, 300.0, 5.2, 9999.999, 9999.999, 1012.5, 1021.2, 6.011558, 43.135978
2022-02-22T00:30:00, 10.6, 37.0, 0.0, 0.0, 280.0, 3.8, 9999.999, 9999.999, 1012.8, 1021.5, 6.011558, 43.135978
2022-02-22T00:36:00, 10.6, 38.0, 0.0, 0.0, 300.0, 3.8, 9999.999, 9999.999, 1012.8, 1021.5, 6.011558, 43.135978
2022-02-22T00:42:00, 10.4, 38.0, 0.0, 0.0, 310.0, 3.1, 9999.999, 9999.999, 1012.9, 1021.6, 6.011558, 43.135978
2022-02-22T00:48:00, 10.4, 39.0, 0.0, 0.0, 290.0, 2.8, 9999.999, 9999.999, 1012.8, 1021.5, 6.011558, 43.135978
2022-02-22T00:54:00, 10.4, 39.0, 0.0, 0.0, 300.0, 3.8, 9999.999, 9999.999, 1012.8, 1021.5, 6.011558, 43.135978
2022-02-22T01:00:00, 10.3, 39.0, 0.0, 0.0, 310.0, 3.4, 9999.999, 9999.999, 1012.8, 1021.5, 6.011558, 43.135978
2022-02-22T01:06:00, 10.3, 39.0, 0.0, 0.0, 310.0, 3.8, 9999.999, 9999.999, 1012.7, 1021.4, 6.011558, 43.135978
2022-02-22T01:12:00, 10.4, 40.0, 0.0, 0.0, 290.0, 4.1, 9999.999, 9999.999, 1012.7, 1021.4, 6.011558, 43.135978
2022-02-22T01:18:00, 10.2, 40.0, 0.0, 0.0, 290.0, 3.3, 9999.999, 9999.999, 1012.6, 1021.3, 6.011558, 43.135978
2022-02-22T01:24:00, 10.1, 41.0, 0.0, 0.0, 300.0, 3.1, 9999.999, 9999.999, 1012.4, 1021.1, 6.011558, 43.135978
2022-02-22T01:30:00, 10.2, 41.0, 0.0, 0.0, 300.0, 4.1, 9999.999, 9999.999, 1012.4, 1021.1, 6.011558, 43.135978
2022-02-22T01:36:00, 10.3, 41.0, 0.0, 0.0, 310.0, 5.0, 9999.999, 9999.999, 1012.3, 1021.0, 6.011558, 43.135978
2022-02-22T01:42:00, 10.3, 41.0, 0.0, 0.0, 310.0, 5.1, 9999.999, 9999.999, 1012.3, 1021.0, 6.011558, 43.135978
2022-02-22T01:48:00, 10.4, 40.0, 0.0, 0.0, 310.0, 5.7, 9999.999, 9999.999, 1012.0, 1020.7, 6.011558, 43.135978
2022-02-22T01:54:00, 10.5, 40.0, 0.0, 0.0, 310.0, 5.7, 9999.999, 9999.999, 1012.1, 1020.8, 6.011558, 43.135978
2022-02-22T02:00:00, 10.6, 40.0, 0.0, 0.0, 310.0, 5.5, 9999.999, 9999.999, 1012.2, 1020.9, 6.011558, 43.135978
2022-02-22T02:06:00, 10.6, 40.0, 0.0, 0.0, 310.0, 6.1, 9999.999, 9999.999, 1012.1, 1020.8, 6.011558, 43.135978
2022-02-22T02:12:00, 10.5, 40.0, 0.0, 0.0, 320.0, 5.7, 9999.999, 9999.999, 1012.2, 1020.9, 6.011558, 43.135978
2022-02-22T02:18:00, 10.6, 39.0, 0.0, 0.0, 320.0, 5.8, 9999.999, 9999.999, 1011.9, 1020.6, 6.011558, 43.135978
2022-02-22T02:24:00, 10.6, 38.0, 0.0, 0.0, 310.0, 6.2, 9999.999, 9999.999, 1012.1, 1020.8, 6.011558, 43.135978
2022-02-22T02:30:00, 10.8, 37.0, 0.0, 0.0, 310.0, 7.2, 9999.999, 9999.999, 1012.0, 1020.7, 6.011558, 43.135978
2022-02-22T02:36:00, 10.5, 37.0, 0.0, 0.0, 300.0, 5.6, 9999.999, 9999.999, 1012.1, 1020.8, 6.011558, 43.135978
2022-02-22T02:42:00, 10.6, 37.0, 0.0, 0.0, 290.0, 4.8, 9999.999, 9999.999, 1012.2, 1020.9, 6.011558, 43.135978
2022-02-22T02:48:00, 10.6, 37.0, 0.0, 0.0, 290.0, 4.4, 9999.999, 9999.999, 1012.2, 1020.9, 6.011558, 43.135978
2022-02-22T02:54:00, 10.3, 40.0, 0.0, 0.0, 280.0, 4.4, 9999.999, 9999.999, 1012.1, 1020.8, 6.011558, 43.135978
2022-02-22T03:00:00, 10.1, 41.0, 0.0, 0.0, 270.0, 4.1, 9999.999, 9999.999, 1012.0, 1020.7, 6.011558, 43.135978
2022-02-22T03:06:00, 9.8, 43.0, 0.0, 0.0, 280.0, 4.3, 9999.999, 9999.999, 1011.9, 1020.6, 6.011558, 43.135978
2022-02-22T03:12:00, 9.6, 45.0, 0.0, 0.0, 290.0, 4.8, 9999.999, 9999.999, 1012.0, 1020.7, 6.011558, 43.135978
2022-02-22T03:18:00, 9.4, 46.0, 0.0, 0.0, 290.0, 4.4, 9999.999, 9999.999, 1012.1, 1020.8, 6.011558, 43.135978
2022-02-22T03:24:00, 9.1, 47.0, 0.0, 0.0, 290.0, 4.0, 9999.999, 9999.999, 1012.0, 1020.7, 6.011558, 43.135978
2022-02-22T03:30:00, 9.0, 48.0, 0.0, 0.0, 290.0, 3.8, 9999.999, 9999.999, 1011.9, 1020.6, 6.011558, 43.135978
2022-02-22T03:36:00, 9.0, 49.0, 0.0, 0.0, 290.0, 3.8, 9999.999, 9999.999, 1012.0, 1020.7, 6.011558, 43.135978
2022-02-22T03:42:00, 8.9, 49.0, 0.0, 0.0, 280.0, 3.0, 9999.999, 9999.999, 1012.0, 1020.7, 6.011558, 43.135978
2022-02-22T03:48:00, 9.0, 49.0, 0.0, 0.0, 280.0, 2.7, 9999.999, 9999.999, 1012.0, 1020.7, 6.011558, 43.135978
2022-02-22T03:54:00, 8.7, 49.0, 0.0, 0.0, 270.0, 2.7, 9999.999, 9999.999, 1012.1, 1020.8, 6.011558, 43.135978
2022-02-22T04:00:00, 8.8, 50.0, 0.0, 0.0, 260.0, 3.1, 9999.999, 9999.999, 1012.2, 1020.9, 6.011558, 43.135978
2022-02-22T04:06:00, 8.9, 50.0, 0.0, 0.0, 260.0, 3.3, 9999.999, 9999.999, 1012.2, 1020.9, 6.011558, 43.135978
2022-02-22T04:12:00, 8.4, 53.0, 0.0, 0.0, 250.0, 3.3, 9999.999, 9999.999, 1012.2, 1020.9, 6.011558, 43.135978
2022-02-22T04:18:00, 8.3, 54.0, 0.0, 0.0, 260.0, 3.6, 9999.999, 9999.999, 1012.3, 1021.0, 6.011558, 43.135978
2022-02-22T04:24:00, 8.2, 54.0, 0.0, 0.0, 260.0, 3.3, 9999.999, 9999.999, 1012.5, 1021.2, 6.011558, 43.135978
2022-02-22T04:30:00, 8.1, 55.0, 0.0, 0.0, 280.0, 3.1, 9999.999, 9999.999, 1012.4, 1021.1, 6.011558, 43.135978
2022-02-22T04:36:00, 8.1, 56.0, 0.0, 0.0, 270.0, 3.2, 9999.999, 9999.999, 1012.5, 1021.2, 6.011558, 43.135978
2022-02-22T04:42:00, 8.1, 55.0, 0.0, 0.0, 280.0, 3.3, 9999.999, 9999.999, 1012.5, 1021.2, 6.011558, 43.135978
2022-02-22T04:48:00, 8.0, 55.0, 0.0, 0.0, 280.0, 3.4, 9999.999, 9999.999, 1012.3, 1021.0, 6.011558, 43.135978
2022-02-22T04:54:00, 8.0, 55.0, 0.0, 0.0, 280.0, 3.6, 9999.999, 9999.999, 1012.3, 1021.0, 6.011558, 43.135978
2022-02-22T05:00:00, 8.0, 55.0, 0.0, 0.0, 280.0, 3.6, 9999.999, 9999.999, 1012.3, 1021.0, 6.011558, 43.135978
2022-02-22T05:06:00, 8.0, 55.0, 0.0, 0.0, 280.0, 3.8, 9999.999, 9999.999, 1012.1, 1020.8, 6.011558, 43.135978
2022-02-22T05:12:00, 8.0, 55.0, 0.0, 0.0, 270.0, 4.4, 9999.999, 9999.999, 1011.7, 1020.4, 6.011558, 43.135978
2022-02-22T05:18:00, 8.0, 55.0, 0.0, 0.0, 280.0, 5.2, 9999.999, 9999.999, 1011.5, 1020.2, 6.011558, 43.135978
2022-02-22T05:24:00, 8.3, 53.0, 0.0, 0.0, 280.0, 6.4, 9999.999, 9999.999, 1011.2, 1019.9, 6.011558, 43.135978
2022-02-22T05:30:00, 8.4, 53.0, 0.0, 0.0, 280.0, 6.8, 9999.999, 9999.999, 1011.0, 1019.7, 6.011558, 43.135978
2022-02-22T05:36:00, 8.3, 53.0, 0.0, 0.0, 290.0, 7.0, 9999.999, 9999.999, 1010.8, 1019.5, 6.011558, 43.135978
2022-02-22T05:42:00, 8.3, 53.0, 0.0, 0.0, 280.0, 6.8, 9999.999, 9999.999, 1010.9, 1019.6, 6.011558, 43.135978
2022-02-22T05:48:00, 8.6, 52.0, 0.0, 0.0, 270.0, 7.2, 9999.999, 9999.999, 1010.8, 1019.5, 6.011558, 43.135978
2022-02-22T05:54:00, 8.4, 52.0, 0.0, 0.0, 280.0, 7.0, 9999.999, 9999.999, 1010.8, 1019.5, 6.011558, 43.135978
2022-02-22T06:00:00, 8.5, 51.0, 0.0, 0.0, 280.0, 6.9, 9999.999, 9999.999, 1010.8, 1019.5, 6.011558, 43.135978
2022-02-22T06:06:00, 8.5, 52.0, 0.0, 0.0, 270.0, 6.8, 9999.999, 9999.999, 1010.8, 1019.5, 6.011558, 43.135978
2022-02-22T06:12:00, 8.2, 51.0, 0.0, 0.0, 270.0, 6.8, 9999.999, 9999.999, 1010.9, 1019.6, 6.011558, 43.135978
2022-02-22T06:18:00, 8.3, 52.0, 0.0, 0.0, 270.0, 5.7, 9999.999, 9999.999, 1010.9, 1019.6, 6.011558, 43.135978
2022-02-22T06:24:00, 8.5, 52.0, 0.0, 0.0, 270.0, 6.3, 9999.999, 9999.999, 1010.8, 1019.5, 6.011558, 43.135978
2022-02-22T06:30:00, 8.6, 51.0, 0.0, 0.0, 280.0, 6.7, 9999.999, 9999.999, 1010.5, 1019.2, 6.011558, 43.135978
2022-02-22T06:36:00, 9.0, 48.0, 0.0, 0.0, 290.0, 7.3, 9999.999, 9999.999, 1010.5, 1019.2, 6.011558, 43.135978
2022-02-22T06:42:00, 9.5, 46.0, 0.0, 0.0, 290.0, 7.5, 9999.999, 9999.999, 1010.3, 1019.0, 6.011558, 43.135978
2022-02-22T06:48:00, 9.4, 46.0, 0.0, 900.0, 290.0, 7.5, 9999.999, 9999.999, 1010.5, 1019.2, 6.011558, 43.135978
2022-02-22T06:54:00, 9.3, 46.0, 0.0, 4900.0, 290.0, 6.8, 9999.999, 9999.999, 1010.5, 1019.2, 6.011558, 43.135978
2022-02-22T07:00:00, 9.5, 46.0, 0.0, 6000.0, 290.0, 6.2, 9999.999, 9999.999, 1010.7, 1019.4, 6.011558, 43.135978
2022-02-22T07:06:00, 9.9, 44.0, 0.0, 7100.0, 300.0, 6.8, 9999.999, 9999.999, 1010.7, 1019.4, 6.011558, 43.135978
2022-02-22T07:12:00, 9.9, 43.0, 0.0, 8500.0, 310.0, 7.3, 9999.999, 9999.999, 1010.5, 1019.2, 6.011558, 43.135978
2022-02-22T07:18:00, 9.9, 44.0, 0.0, 13000.0, 310.0, 6.8, 9999.999, 9999.999, 1010.6, 1019.3, 6.011558, 43.135978
2022-02-22T07:24:00, 10.2, 43.0, 0.0, 39400.0, 310.0, 6.6, 9999.999, 9999.999, 1010.8, 1019.5, 6.011558, 43.135978
2022-02-22T07:30:00, 10.6, 41.0, 0.0, 52800.0, 310.0, 6.5, 9999.999, 9999.999, 1010.8, 1019.4, 6.011558, 43.135978
2022-02-22T07:36:00, 10.8, 40.0, 0.0, 59700.0, 310.0, 6.2, 9999.999, 9999.999, 1011.1, 1019.7, 6.011558, 43.135978
2022-02-22T07:42:00, 11.3, 38.0, 0.0, 66800.0, 310.0, 6.2, 9999.999, 9999.999, 1011.0, 1019.6, 6.011558, 43.135978
2022-02-22T07:48:00, 11.6, 36.0, 0.0, 74100.0, 310.0, 6.2, 9999.999, 9999.999, 1011.3, 1019.9, 6.011558, 43.135978
2022-02-22T07:54:00, 11.9, 35.0, 0.0, 80900.0, 310.0, 5.6, 9999.999, 9999.999, 1011.4, 1020.0, 6.011558, 43.135978
2022-02-22T08:00:00, 12.2, 34.0, 0.0, 87700.0, 320.0, 6.1, 9999.999, 9999.999, 1011.4, 1020.0, 6.011558, 43.135978
2022-02-22T08:06:00, 12.5, 32.0, 0.0, 94600.0, 320.0, 7.0, 9999.999, 9999.999, 1011.5, 1020.1, 6.011558, 43.135978
2022-02-22T08:12:00, 12.8, 31.0, 0.0, 101300.0, 320.0, 7.0, 9999.999, 9999.999, 1011.5, 1020.1, 6.011558, 43.135978
2022-02-22T08:18:00, 13.0, 31.0, 0.0, 107900.0, 320.0, 6.5, 9999.999, 9999.999, 1011.8, 1020.4, 6.011558, 43.135978
2022-02-22T08:24:00, 13.4, 31.0, 0.0, 114500.0, 330.0, 4.6, 9999.999, 9999.999, 1012.1, 1020.7, 6.011558, 43.135978
2022-02-22T08:30:00, 13.5, 30.0, 0.0, 120800.0, 320.0, 4.2, 9999.999, 9999.999, 1011.9, 1020.5, 6.011558, 43.135978
2022-02-22T08:36:00, 14.0, 29.0, 0.0, 126900.0, 320.0, 3.0, 9999.999, 9999.999, 1012.1, 1020.7, 6.011558, 43.135978
2022-02-22T08:42:00, 13.9, 29.0, 0.0, 133300.0, 340.0, 3.1, 9999.999, 9999.999, 1012.0, 1020.6, 6.011558, 43.135978
2022-02-22T08:48:00, 14.1, 29.0, 0.0, 139400.0, 360.0, 2.9, 9999.999, 9999.999, 1012.2, 1020.8, 6.011558, 43.135978
2022-02-22T08:54:00, 14.1, 28.0, 0.0, 145400.0, 360.0, 3.2, 9999.999, 9999.999, 1012.1, 1020.7, 6.011558, 43.135978
2022-02-22T09:00:00, 14.3, 28.0, 0.0, 151200.0, 350.0, 3.4, 9999.999, 9999.999, 1012.1, 1020.6, 6.011558, 43.135978
2022-02-22T09:06:00, 14.5, 28.0, 0.0, 156600.0, 350.0, 3.0, 9999.999, 9999.999, 1012.1, 1020.6, 6.011558, 43.135978
2022-02-22T09:12:00, 14.8, 29.0, 0.0, 161800.0, 10.0, 2.5, 9999.999, 9999.999, 1012.2, 1020.7, 6.011558, 43.135978
2022-02-22T09:18:00, 14.4, 29.0, 0.0, 167700.0, 20.0, 3.2, 9999.999, 9999.999, 1012.2, 1020.7, 6.011558, 43.135978
2022-02-22T09:24:00, 14.9, 29.0, 0.0, 172900.0, 9999.999, 3.2, 9999.999, 9999.999, 1012.2, 1020.7, 6.011558, 43.135978
2022-02-22T09:30:00, 15.2, 27.0, 0.0, 177400.0, 9999.999, 1.8, 9999.999, 9999.999, 1012.2, 1020.7, 6.011558, 43.135978
2022-02-22T09:36:00, 15.2, 28.0, 0.0, 182600.0, 9999.999, 1.9, 9999.999, 9999.999, 1012.1, 1020.6, 6.011558, 43.135978
2022-02-22T09:42:00, 15.8, 27.0, 0.0, 186100.0, 90.0, 1.6, 9999.999, 9999.999, 1012.2, 1020.7, 6.011558, 43.135978
2022-02-22T09:48:00, 15.7, 29.0, 0.0, 190800.0, 9999.999, 1.6, 9999.999, 9999.999, 1012.1, 1020.6, 6.011558, 43.135978
2022-02-22T09:54:00, 15.5, 28.0, 0.0, 194500.0, 110.0, 2.0, 9999.999, 9999.999, 1012.2, 1020.7, 6.011558, 43.135978
2022-02-22T10:00:00, 15.6, 29.0, 0.0, 198500.0, 9999.999, 1.9, 9999.999, 9999.999, 1012.1, 1020.6, 6.011558, 43.135978
2022-02-22T10:06:00, 15.7, 28.0, 0.0, 202600.0, 9999.999, 2.2, 9999.999, 9999.999, 1012.2, 1020.7, 6.011558, 43.135978
2022-02-22T10:12:00, 15.5, 30.0, 0.0, 206400.0, 9999.999, 2.7, 9999.999, 9999.999, 1012.1, 1020.6, 6.011558, 43.135978
2022-02-22T10:18:00, 15.6, 27.0, 0.0, 209700.0, 9999.999, 2.0, 9999.999, 9999.999, 1012.2, 1020.7, 6.011558, 43.135978
2022-02-22T10:24:00, 15.9, 26.0, 0.0, 212700.0, 9999.999, 1.0, 9999.999, 9999.999, 1012.2, 1020.7, 6.011558, 43.135978
2022-02-22T10:30:00, 16.5, 28.0, 0.0, 214500.0, 9999.999, 0.7, 9999.999, 9999.999, 1012.2, 1020.7, 6.011558, 43.135978
2022-02-22T10:36:00, 16.5, 27.0, 0.0, 216600.0, 9999.999, 1.4, 9999.999, 9999.999, 1012.2, 1020.7, 6.011558, 43.135978
2022-02-22T10:42:00, 16.7, 28.0, 0.0, 219700.0, 9999.999, 1.4, 9999.999, 9999.999, 1012.1, 1020.6, 6.011558, 43.135978
2022-02-22T10:48:00, 16.3, 28.0, 0.0, 223200.0, 9999.999, 2.2, 9999.999, 9999.999, 1012.1, 1020.6, 6.011558, 43.135978
2022-02-22T10:54:00, 16.4, 27.0, 0.0, 225600.0, 9999.999, 2.1, 9999.999, 9999.999, 1012.1, 1020.6, 6.011558, 43.135978
2022-02-22T11:00:00, 17.0, 29.0, 0.0, 226900.0, 9999.999, 1.5, 9999.999, 9999.999, 1012.2, 1020.7, 6.011558, 43.135978
2022-02-22T11:06:00, 16.8, 27.0, 0.0, 228500.0, 9999.999, 1.9, 9999.999, 9999.999, 1012.3, 1020.8, 6.011558, 43.135978
2022-02-22T11:12:00, 16.5, 28.0, 0.0, 231100.0, 9999.999, 2.7, 9999.999, 9999.999, 1012.3, 1020.8, 6.011558, 43.135978
2022-02-22T11:18:00, 16.6, 27.0, 0.0, 232400.0, 9999.999, 2.3, 9999.999, 9999.999, 1012.3, 1020.8, 6.011558, 43.135978
2022-02-22T11:24:00, 16.7, 28.0, 0.0, 230600.0, 9999.999, 2.0, 9999.999, 9999.999, 1012.2, 1020.7, 6.011558, 43.135978
2022-02-22T11:30:00, 17.2, 26.0, 0.0, 234500.0, 9999.999, 1.8, 9999.999, 9999.999, 1012.3, 1020.8, 6.011558, 43.135978
2022-02-22T11:36:00, 17.8, 27.0, 0.0, 233800.0, 9999.999, 0.6, 9999.999, 9999.999, 1012.3, 1020.7, 6.011558, 43.135978
2022-02-22T11:42:00, 17.5, 28.0, 0.0, 235700.0, 9999.999, 1.3, 9999.999, 9999.999, 1012.3, 1020.8, 6.011558, 43.135978
2022-02-22T11:48:00, 17.2, 28.0, 0.0, 235900.0, 9999.999, 2.2, 9999.999, 9999.999, 1012.2, 1020.7, 6.011558, 43.135978
2022-02-22T11:54:00, 17.3, 26.0, 0.0, 236200.0, 9999.999, 2.4, 9999.999, 9999.999, 1012.2, 1020.7, 6.011558, 43.135978
2022-02-22T12:00:00, 17.1, 28.0, 0.0, 236400.0, 9999.999, 3.0, 9999.999, 9999.999, 1012.1, 1020.6, 6.011558, 43.135978
2022-02-22T12:06:00, 17.4, 28.0, 0.0, 235400.0, 9999.999, 2.5, 9999.999, 9999.999, 1012.0, 1020.5, 6.011558, 43.135978
2022-02-22T12:12:00, 17.3, 28.0, 0.0, 236200.0, 9999.999, 2.6, 9999.999, 9999.999, 1011.8, 1020.3, 6.011558, 43.135978
2022-02-22T12:18:00, 17.3, 27.0, 0.0, 236500.0, 9999.999, 3.6, 9999.999, 9999.999, 1011.8, 1020.3, 6.011558, 43.135978
2022-02-22T12:24:00, 17.4, 27.0, 0.0, 235300.0, 9999.999, 3.9, 9999.999, 9999.999, 1011.7, 1020.2, 6.011558, 43.135978
2022-02-22T12:30:00, 17.4, 26.0, 0.0, 234800.0, 9999.999, 3.9, 9999.999, 9999.999, 1011.6, 1020.1, 6.011558, 43.135978
2022-02-22T12:36:00, 17.3, 26.0, 0.0, 233200.0, 9999.999, 4.5, 9999.999, 9999.999, 1011.5, 1020.0, 6.011558, 43.135978
2022-02-22T12:42:00, 17.5, 26.0, 0.0, 231000.0, 9999.999, 4.2, 9999.999, 9999.999, 1011.4, 1019.8, 6.011558, 43.135978
2022-02-22T12:48:00, 17.5, 25.0, 0.0, 228800.0, 9999.999, 3.4, 9999.999, 9999.999, 1011.4, 1019.8, 6.011558, 43.135978
2022-02-22T12:54:00, 17.4, 26.0, 0.0, 226600.0, 9999.999, 3.6, 9999.999, 9999.999, 1011.4, 1019.8, 6.011558, 43.135978
2022-02-22T13:00:00, 17.6, 26.0, 0.0, 225500.0, 9999.999, 3.2, 9999.999, 9999.999, 1011.3, 1019.7, 6.011558, 43.135978
2022-02-22T13:06:00, 17.9, 26.0, 0.0, 223700.0, 9999.999, 2.5, 9999.999, 9999.999, 1011.3, 1019.7, 6.011558, 43.135978
2022-02-22T13:12:00, 17.9, 26.0, 0.0, 220200.0, 9999.999, 3.2, 9999.999, 9999.999, 1011.1, 1019.5, 6.011558, 43.135978
2022-02-22T13:18:00, 17.8, 26.0, 0.0, 218000.0, 9999.999, 4.2, 9999.999, 9999.999, 1011.1, 1019.5, 6.011558, 43.135978
2022-02-22T13:24:00, 17.9, 25.0, 0.0, 215600.0, 9999.999, 4.1, 9999.999, 9999.999, 1011.1, 1019.5, 6.011558, 43.135978
2022-02-22T13:30:00, 17.8, 25.0, 0.0, 212400.0, 9999.999, 4.4, 9999.999, 9999.999, 1011.1, 1019.5, 6.011558, 43.135978
2022-02-22T13:36:00, 17.7, 25.0, 0.0, 210600.0, 9999.999, 4.6, 9999.999, 9999.999, 1011.1, 1019.5, 6.011558, 43.135978
2022-02-22T13:42:00, 17.5, 26.0, 0.0, 191000.0, 9999.999, 4.7, 9999.999, 9999.999, 1011.0, 1019.4, 6.011558, 43.135978
2022-02-22T13:48:00, 17.5, 26.0, 0.0, 159100.0, 9999.999, 4.1, 9999.999, 9999.999, 1011.0, 1019.4, 6.011558, 43.135978
2022-02-22T13:54:00, 17.9, 25.0, 0.0, 199500.0, 9999.999, 3.7, 9999.999, 9999.999, 1010.9, 1019.3, 6.011558, 43.135978
2022-02-22T14:00:00, 17.7, 27.0, 0.0, 153100.0, 9999.999, 3.5, 9999.999, 9999.999, 1010.9, 1019.3, 6.011558, 43.135978
2022-02-22T14:06:00, 18.1, 26.0, 0.0, 199600.0, 9999.999, 3.4, 9999.999, 9999.999, 1010.7, 1019.1, 6.011558, 43.135978
2022-02-22T14:12:00, 17.7, 25.0, 0.0, 130200.0, 9999.999, 3.9, 9999.999, 9999.999, 1010.8, 1019.2, 6.011558, 43.135978
2022-02-22T14:18:00, 17.5, 26.0, 0.0, 122400.0, 9999.999, 4.1, 9999.999, 9999.999, 1010.7, 1019.1, 6.011558, 43.135978
2022-02-22T14:24:00, 17.8, 26.0, 0.0, 175200.0, 9999.999, 3.8, 9999.999, 9999.999, 1010.7, 1019.1, 6.011558, 43.135978
2022-02-22T14:30:00, 17.9, 25.0, 0.0, 155700.0, 9999.999, 3.7, 9999.999, 9999.999, 1010.6, 1019.0, 6.011558, 43.135978
2022-02-22T14:36:00, 17.8, 25.0, 0.0, 158800.0, 9999.999, 3.9, 9999.999, 9999.999, 1010.7, 1019.1, 6.011558, 43.135978
2022-02-22T14:42:00, 17.8, 25.0, 0.0, 130500.0, 9999.999, 3.1, 9999.999, 9999.999, 1010.5, 1018.9, 6.011558, 43.135978
2022-02-22T14:48:00, 17.9, 26.0, 0.0, 161500.0, 9999.999, 2.8, 9999.999, 9999.999, 1010.4, 1018.8, 6.011558, 43.135978
2022-02-22T14:54:00, 18.2, 24.0, 0.0, 154700.0, 9999.999, 3.0, 9999.999, 9999.999, 1010.4, 1018.8, 6.011558, 43.135978
2022-02-22T15:00:00, 18.2, 24.0, 0.0, 142500.0, 9999.999, 3.3, 9999.999, 9999.999, 1010.2, 1018.6, 6.011558, 43.135978
2022-02-22T15:06:00, 18.3, 24.0, 0.0, 150400.0, 9999.999, 3.1, 9999.999, 9999.999, 1010.2, 1018.6, 6.011558, 43.135978
2022-02-22T15:12:00, 18.2, 24.0, 0.0, 146500.0, 9999.999, 3.8, 9999.999, 9999.999, 1010.2, 1018.6, 6.011558, 43.135978
2022-02-22T15:18:00, 18.0, 24.0, 0.0, 143700.0, 9999.999, 3.7, 9999.999, 9999.999, 1010.2, 1018.6, 6.011558, 43.135978
2022-02-22T15:24:00, 17.9, 25.0, 0.0, 100300.0, 9999.999, 3.1, 9999.999, 9999.999, 1010.3, 1018.7, 6.011558, 43.135978
2022-02-22T15:30:00, 17.3, 26.0, 0.0, 69700.0, 9999.999, 3.0, 9999.999, 9999.999, 1010.3, 1018.7, 6.011558, 43.135978
2022-02-22T15:36:00, 16.9, 26.0, 0.0, 56500.0, 9999.999, 2.8, 9999.999, 9999.999, 1010.3, 1018.8, 6.011558, 43.135978
2022-02-22T15:42:00, 16.6, 28.0, 0.0, 57900.0, 9999.999, 3.7, 9999.999, 9999.999, 1010.3, 1018.8, 6.011558, 43.135978
2022-02-22T15:48:00, 16.5, 28.0, 0.0, 49300.0, 9999.999, 3.3, 9999.999, 9999.999, 1010.4, 1018.9, 6.011558, 43.135978
2022-02-22T15:54:00, 16.2, 28.0, 0.0, 39000.0, 9999.999, 2.6, 9999.999, 9999.999, 1010.3, 1018.8, 6.011558, 43.135978
2022-02-22T16:00:00, 16.1, 28.0, 0.0, 41800.0, 9999.999, 3.1, 9999.999, 9999.999, 1010.3, 1018.8, 6.011558, 43.135978
2022-02-22T16:06:00, 15.8, 29.0, 0.0, 31200.0, 9999.999, 2.7, 9999.999, 9999.999, 1010.4, 1018.9, 6.011558, 43.135978
2022-02-22T16:12:00, 15.7, 28.0, 0.0, 36100.0, 9999.999, 2.4, 9999.999, 9999.999, 1010.5, 1019.0, 6.011558, 43.135978
2022-02-22T16:18:00, 16.2, 28.0, 0.0, 62000.0, 9999.999, 2.4, 9999.999, 9999.999, 1010.3, 1018.8, 6.011558, 43.135978
2022-02-22T16:24:00, 16.3, 28.0, 0.0, 62600.0, 9999.999, 2.4, 9999.999, 9999.999, 1010.3, 1018.8, 6.011558, 43.135978
2022-02-22T16:30:00, 16.4, 28.0, 0.0, 60800.0, 9999.999, 2.3, 9999.999, 9999.999, 1010.3, 1018.8, 6.011558, 43.135978
2022-02-22T16:36:00, 16.5, 28.0, 0.0, 53300.0, 9999.999, 2.2, 9999.999, 9999.999, 1010.2, 1018.7, 6.011558, 43.135978
2022-02-22T16:42:00, 16.6, 27.0, 0.0, 42300.0, 9999.999, 1.3, 9999.999, 9999.999, 1010.2, 1018.7, 6.011558, 43.135978
2022-02-22T16:48:00, 16.3, 28.0, 0.0, 31100.0, 180.0, 1.2, 9999.999, 9999.999, 1010.1, 1018.6, 6.011558, 43.135978
2022-02-22T16:54:00, 15.9, 28.0, 0.0, 23400.0, 9999.999, 1.7, 9999.999, 9999.999, 1010.2, 1018.7, 6.011558, 43.135978
2022-02-22T17:00:00, 15.8, 27.0, 0.0, 16400.0, 9999.999, 1.5, 9999.999, 9999.999, 1010.1, 1018.6, 6.011558, 43.135978
2022-02-22T17:06:00, 15.8, 26.0, 0.0, 6500.0, 9999.999, 1.8, 9999.999, 9999.999, 1010.2, 1018.7, 6.011558, 43.135978
2022-02-22T17:12:00, 15.2, 29.0, 0.0, 2800.0, 9999.999, 1.7, 9999.999, 9999.999, 1010.0, 1018.5, 6.011558, 43.135978
2022-02-22T17:18:00, 15.1, 27.0, 0.0, 0.0, 9999.999, 1.5, 9999.999, 9999.999, 1010.2, 1018.7, 6.011558, 43.135978
2022-02-22T17:24:00, 15.0, 28.0, 0.0, 0.0, 9999.999, 1.5, 9999.999, 9999.999, 1010.3, 1018.8, 6.011558, 43.135978
2022-02-22T17:30:00, 15.0, 27.0, 0.0, 0.0, 9999.999, 2.8, 9999.999, 9999.999, 1010.5, 1019.0, 6.011558, 43.135978
2022-02-22T17:36:00, 15.1, 27.0, 0.0, 0.0, 9999.999, 3.3, 9999.999, 9999.999, 1010.5, 1019.0, 6.011558, 43.135978
2022-02-22T17:42:00, 14.8, 28.0, 0.0, 0.0, 9999.999, 2.4, 9999.999, 9999.999, 1010.5, 1019.0, 6.011558, 43.135978
2022-02-22T17:48:00, 14.4, 30.0, 0.0, 0.0, 220.0, 1.4, 9999.999, 9999.999, 1010.7, 1019.2, 6.011558, 43.135978
2022-02-22T17:54:00, 13.9, 31.0, 0.0, 0.0, 200.0, 1.7, 9999.999, 9999.999, 1010.7, 1019.2, 6.011558, 43.135978
2022-02-22T18:00:00, 13.6, 32.0, 0.0, 0.0, 210.0, 2.2, 9999.999, 9999.999, 1010.7, 1019.3, 6.011558, 43.135978
2022-02-22T18:06:00, 13.6, 32.0, 0.0, 0.0, 200.0, 1.7, 9999.999, 9999.999, 1010.8, 1019.4, 6.011558, 43.135978
2022-02-22T18:12:00, 13.4, 32.0, 0.0, 0.0, 190.0, 0.9, 9999.999, 9999.999, 1010.8, 1019.4, 6.011558, 43.135978
2022-02-22T18:18:00, 13.1, 32.0, 0.0, 0.0, 210.0, 0.9, 9999.999, 9999.999, 1011.0, 1019.6, 6.011558, 43.135978
2022-02-22T18:24:00, 12.9, 33.0, 0.0, 0.0, 210.0, 0.7, 9999.999, 9999.999, 1011.1, 1019.7, 6.011558, 43.135978
2022-02-22T18:30:00, 12.8, 34.0, 0.0, 0.0, 200.0, 1.0, 9999.999, 9999.999, 1011.2, 1019.8, 6.011558, 43.135978
2022-02-22T18:36:00, 12.7, 33.0, 0.0, 0.0, 210.0, 1.7, 9999.999, 9999.999, 1011.2, 1019.8, 6.011558, 43.135978
2022-02-22T18:42:00, 13.2, 33.0, 0.0, 0.0, 230.0, 2.1, 9999.999, 9999.999, 1011.3, 1019.9, 6.011558, 43.135978
2022-02-22T18:48:00, 13.1, 33.0, 0.0, 0.0, 220.0, 2.3, 9999.999, 9999.999, 1011.4, 1020.0, 6.011558, 43.135978
2022-02-22T18:54:00, 13.0, 33.0, 0.0, 0.0, 230.0, 2.2, 9999.999, 9999.999, 1011.4, 1020.0, 6.011558, 43.135978
2022-02-22T19:00:00, 12.9, 32.0, 0.0, 0.0, 240.0, 2.1, 9999.999, 9999.999, 1011.3, 1019.9, 6.011558, 43.135978
2022-02-22T19:06:00, 13.1, 32.0, 0.0, 0.0, 250.0, 2.2, 9999.999, 9999.999, 1011.2, 1019.8, 6.011558, 43.135978
2022-02-22T19:12:00, 13.5, 31.0, 0.0, 0.0, 280.0, 2.6, 9999.999, 9999.999, 1011.2, 1019.8, 6.011558, 43.135978
2022-02-22T19:18:00, 13.4, 31.0, 0.0, 0.0, 290.0, 3.1, 9999.999, 9999.999, 1011.1, 1019.7, 6.011558, 43.135978
2022-02-22T19:24:00, 13.7, 30.0, 0.0, 0.0, 280.0, 3.6, 9999.999, 9999.999, 1011.1, 1019.7, 6.011558, 43.135978
2022-02-22T19:30:00, 13.5, 31.0, 0.0, 0.0, 260.0, 3.3, 9999.999, 9999.999, 1011.3, 1019.9, 6.011558, 43.135978
2022-02-22T19:36:00, 13.2, 31.0, 0.0, 0.0, 250.0, 2.3, 9999.999, 9999.999, 1011.4, 1020.0, 6.011558, 43.135978
2022-02-22T19:42:00, 13.4, 30.0, 0.0, 0.0, 270.0, 2.4, 9999.999, 9999.999, 1011.4, 1020.0, 6.011558, 43.135978
2022-02-22T19:48:00, 14.0, 29.0, 0.0, 0.0, 320.0, 3.5, 9999.999, 9999.999, 1011.3, 1019.9, 6.011558, 43.135978
2022-02-22T19:54:00, 14.2, 29.0, 0.0, 0.0, 340.0, 2.9, 9999.999, 9999.999, 1011.2, 1019.7, 6.011558, 43.135978
2022-02-22T20:00:00, 13.3, 32.0, 0.0, 0.0, 110.0, 1.6, 9999.999, 9999.999, 1011.2, 1019.8, 6.011558, 43.135978
2022-02-22T20:06:00, 12.7, 33.0, 0.0, 0.0, 160.0, 1.3, 9999.999, 9999.999, 1011.4, 1020.0, 6.011558, 43.135978
2022-02-22T20:12:00, 12.8, 32.0, 0.0, 0.0, 200.0, 1.5, 9999.999, 9999.999, 1011.5, 1020.1, 6.011558, 43.135978
2022-02-22T20:18:00, 12.9, 32.0, 0.0, 0.0, 180.0, 1.1, 9999.999, 9999.999, 1011.3, 1019.9, 6.011558, 43.135978
2022-02-22T20:24:00, 12.7, 33.0, 0.0, 0.0, 170.0, 1.3, 9999.999, 9999.999, 1011.3, 1019.9, 6.011558, 43.135978
2022-02-22T20:30:00, 12.4, 33.0, 0.0, 0.0, 190.0, 1.7, 9999.999, 9999.999, 1011.3, 1019.9, 6.011558, 43.135978
2022-02-22T20:36:00, 12.4, 33.0, 0.0, 0.0, 190.0, 1.6, 9999.999, 9999.999, 1011.3, 1019.9, 6.011558, 43.135978